Regional Weather Roundup
Issued by NWS Charleston, SC

Current Version | Previous Version | Graphics & Text | Print | Product List | Glossary On
Versions: 1 2 3 4 5 6 7 8 9 10 11 12 13 14 15 16 17 18 19 20 21 22 23 24 25 26 27 28 29 30 31 32 33 34 35 36 37 38 39 40 41 42 43 44 45 46 47 48 49 50
000 ASUS42 KCHS 281826 RWRCHS REGIONAL WEATHER ROUNDUP NATIONAL WEATHER SERVICE CHARLESTON SC 200 PM EDT SAT MAR 28 2015 NOTE: "FAIR" INDICATES FEW OR NO CLOUDS BELOW 12,000 FEET WITH NO SIGNIFICANT WEATHER AND/OR OBSTRUCTIONS TO VISIBILITY. NOT ALL STATIONS ARE QUALITY CONTROLLED BY THE NATIONAL WEATHER SERVICE. USE DATA WITH CAUTION...ESPECIALLY DEWPOINT OBSERVATIONS. SCZ027-030-031-034>040-042>050-281900- ...SOUTHEAST SOUTH CAROLINA... CITY SKY/WX TMP DP RH WIND PRES REMARKS N CHARLESTON MOSUNNY 54 28 36 W9G18 30.07S 6HR MIN TEMP: 44; 6HR MAX TEMP: 57; WATERFRONT PRK N/A 55 N/A N/A NW8G17 N/A MOUNT PLEASANT FAIR 55 30 38 W9 30.07R PINOPOLIS N/A 54 30 40 N12 29.99 MONCKS CORNER MOCLDY 55 30 38 N6 30.06S SUMMERVILLE MOCLDY 54 32 43 W8G20 30.08S BEAUFORT MCAS SUNNY 57 28 33 NW9G21 30.09S 6HR MIN TEMP: 45; 6HR MAX TEMP: 57; BEAUFORT ARPT FAIR 59 32 36 W12G26 30.08F HILTON HEAD IS MOSUNNY N/A N/A N/A W10G16 30.09F WALTERBORO PTCLDY 55 27 33 W10G18 30.08S ALLENDALE FAIR 55 23 28 W7G16 30.08S ...SOUTHERN MIDLANDS AND PEE DEE... CITY SKY/WX TMP DP RH WIND PRES REMARKS GEORGETOWN NOT AVBL KINGSTREE NOT AVBL ORANGEBURG MOSUNNY 53 26 35 NW9 30.08S 6HR MIN TEMP: 41; 6HR MAX TEMP: 54; BARNWELL FAIR 55 28 35 SW9G18 30.09F AIKEN FAIR 50 23 34 NW7 30.11F MANNING FAIR N/A N/A N/A NW12G17 30.07S COLUMBIA MOSUNNY 52 24 33 W15 30.07F 6HR MIN TEMP: 43; 6HR MAX TEMP: 53; SUMTER MOSUNNY 53 24 31 NW10 30.04F 6HR MIN TEMP: 40; 6HR MAX TEMP: 53; FLORENCE MOSUNNY 53 25 33 W14G21 30.05F 6HR MIN TEMP: 42; 6HR MAX TEMP: 53; MYRTLE BEACH PTSUNNY 54 30 40 N14 30.06S N MYRTLE BEACH PTSUNNY 51 31 46 NW9 30.03F 6HR MIN TEMP: 43; 6HR MAX TEMP: 52; $$ GAZ063-065-086>088-099>101-113>116-118-119-134>141-150-281900- ...SOUTHEAST GEORGIA... CITY SKY/WX TMP DP RH WIND PRES REMARKS SAVANNAH ARPT MOSUNNY 57 28 33 W17G26 30.10F 6HR MIN TEMP: 44; 6HR MAX TEMP: 58; HUNTER AAF MOSUNNY 59 32 36 SW17 30.08F 6HR MIN TEMP: 43; 6HR MAX TEMP: 58; FORT STEWART SUNNY 56 29 35 W9G21 30.10F 6HR MIN TEMP: 43; 6HR MAX TEMP: 56; STATESBORO SUNNY 56 28 34 NW15 30.10F SYLVANIA CLEAR 55 30 38 NW12G17 30.11S CLAXTON FAIR 55 32 41 W12G21 30.12F ...CSRA...CENTRAL AND FAR SOUTHEAST GEORGIA... CITY SKY/WX TMP DP RH WIND PRES REMARKS THOMSON SUNNY 55 27 34 W7 30.15S AUGUSTA-BUSH SUNNY 54 24 31 NW12G17 30.10F 6HR MIN TEMP: 40; 6HR MAX TEMP: 55; AUGUSTA-DANIEL SUNNY 54 23 30 NW10G18 30.10F SWAINSBORO FAIR 57 0 9 W12G18 30.12F VIDALIA MOSUNNY 55 32 41 W13 30.12F EASTMAN FAIR 55 28 35 W8G17 30.18S HAZLEHURST FAIR 55 32 41 SW6 30.13S ALMA SUNNY 55 28 35 NW13G20 30.14F 6HR MIN TEMP: 42; 6HR MAX TEMP: 55; WAYCROSS SUNNY 61 32 33 W9G20 30.14S JESUP FAIR 59 36 41 NW13G23 30.13F BAXLEY FAIR 57 30 35 W12 30.12F BRUNSWICK SUNNY 61 30 31 W13G20 30.12F SAINT SIMONS SUNNY 58 31 35 W9G18 30.13S 6HR MIN TEMP: 46; 6HR MAX TEMP: 58; $$ SCZ027-028-034-036>038-045-046-048>050-GAZ119-141-281900- ...LAKE AND SUPPLEMENTAL COASTAL OBSERVATIONS... STATION/POSITION TIME TEMP WIND PRES WAVE SWELL AIR SEA DIR/SP/G HT/PER HT/PER/DIR (UTC) (F) (DEG/KT/KT) (MB) (FT/S) (FT/S/D) UPR LAKE MARION NOT AVBL WINYAH BAY 1700 50 290/ 6 1016.0F LAKE MURRAY 1800 48 260/ 8/ 15 1017.9F ACE BASIN NERRS 1700 53 290/ 5 1018.0S FORT PULASKI 1712 52 60 270/ 14/ 19 1019.9 SAPELO ISLAND 1800 56 280/ 12 1020.0S $$ ANZ835-935-AMZ111-154-330-350-352-354-370-450-454-472-281900- ...C-MAN AND BUOY OBSERVATIONS... STATION/POSITION TIME TEMP WIND PRES WAVE SWELL AIR SEA DIR/SP/G HT/PER HT/PER/DIR (UTC) (F) (DEG/KT/KT) (MB) (FT/S) (FT/S/D) BUOY 41004 1750 52 68 280/ 12/ 17 1017.7F 4/ 7 3/ 7 BUOY 41008 1750 53 61 270/ 14/ 17 1019.6F 2/ 3 2/110/ 8 FOLLY BEACH CMAN 1800 55 240/ 8/ 13 1018.2S CAPERS NEARSHORE NOT AVBL FRIPP NEARSHORE 1700 53 270/ 14/ 16 1018.6F STATION/POSITION TIME TEMP WIND PRES WAVE SWELL AIR SEA DIR/SP/G HT/PER HT/PER/DIR (UTC) (F) (DEG/KT/KT) (MB) (FT/S) (FT/S/D) 5E ST. MARYS GA 1721 61 N/A 2/ 3 FRYING PAN BUOY 1750 50 65 280/ 10/ 16 1017.5R 4/ 7 3/170/ 7 BUOY 41025 NOT AVBL CAPE LOOKOUT NC 1800 49 280/ 10/ 13 1015.5F BUOY 41002 1750 60 68 290/ 17/ 21 1015.5R 13/10 11/260/10 BUOY 41010 1720 64 75 300/ 17/ 23 1018.9S ST AUGUSTINE FL 1800 60 61 290/ 9/ 13 1020.6F $$

USA.gov is the U.S. government's official web portal to all federal, state and local government web resources and services.